Location: Lombard
(41.8800°N, 88.0080°W)
Time: 00:14:26
(UTC-05:00)

Transit 2A - Pass Details

Date: 08 February 2023
Orbit: 591 x 964 km, 66.7° (Epoch: 20 March)

Event Time Altitude Azimuth Distance (km) Brightness Sun altitude
Rises 22:55:15 0° 337° (NNW) 3,488 - -58.8°
Reaches altitude 10° 22:58:13 10° 351° (N) 2,598 - -59.2°
Maximum altitude 23:03:05 24° 44° (NE) 1,843 - -59.6°
Drops below altitude 10° 23:08:06 10° 97° (E) 2,693 - -60.1°
Sets 23:11:14 0° 110° (ESE) 3,643 - -60.4°
